Tracking 29892 objects as of 21-Nov-2024
HD Live streaming from Space Station
objects crossing your sky now

THORAD AGENA D DEB

Track THORAD AGENA D DEB now!
10-day predictions


NORAD ID: 42518
Int'l Code: 1970-025RY
Perigee: 876.5 km
Apogee: 982.7 km
Inclination: 100.4 °
Period: 103.5 minutes
Semi major axis: 7300 km
RCS: Unknown
Launch date: April 8, 1970
Source: United States (US)
Launch site: AIR FORCE WESTERN TEST RANGE (AFWTR)

Note: This is SATELLITE DEBRIS
Your satellite tracking list
EUTE 16C (SESAT 1)
Track 1 satellite(s)




NASA's NSSDC Master Catalog

Two Line Element Set (TLE):
1 42518U 70025RY  24324.17115087  .00010151  00000-0  78435-2 0  9996
2 42518 100.4325 295.2636 0072710 194.6533 165.2514 13.91764106212982
Source of the keplerian elements: AFSPC